To NAV CANADA Home Page Login to a new session Search on AWWS site Feedback and Comments Disclaimer Vers la page française équivalente Tips FAQ What's new on the site To the Forecasts and Observations / NOTAM section To "File a Flight Plan" website Publications and other links Update of the User's profile FIC Telephone Numbers My Weather Data Folder Route Weather Data Regional Weather Data Local Weather Data To the Forecasts and Observations / NOTAM section
Request Generated 08/28/2016 at 05:05:14 UTC . Weather information available at that time is displayed.

METAR/TAF

HOPE/BC    (show WxCam)

METAR CYHE 280500Z AUTO 29010G16KT 9SM SCT055 BKN080 20/13 A2989 RMK
SLP124 DENSITY ALT 700FT=
METAR CYHE 280400Z AUTO 29008G18KT 270V340 9SM BKN070 20/12 A2987 RMK
PRESRR SLP117 DENSITY ALT 800FT=
METAR CYHE 280300Z AUTO 28011G21KT 9SM SCT090 21/12 A2984 RMK SLP105
DENSITY ALT 900FT=

CYHE - No TAF is issued for this station

Your time UTC time
Weather data provided by Environment Canada and NAV CANADA